Reflectivity
-20 -20 -20 -20 -20 -20 -20 -20 -20 -20 -20 -20 -20 -20 -20 -20 -20 -20 -20 -20 -20 -20 -20 -20 -20 -20 -20 -20 -20 -20 -20 -20 -20 -20 -20 -20 -20 -20 -20 -20 -20 -20 -20 -20
-20 -20 -20 -20 -20 -20 -20 -20 -20 -20 -20 -20 -20 -20 -20 -20 -20 -20 -20 -20 -20 -20 -20 -20 -20 -20 -20 -20 -20 -20 -20 -20 -20 -20 -20 -20 -20 -20 -20 -20 -20 -20 -20 -20
-20 -20 -20 -20 -20 -20 -20 -20 -20 -20 -20 -20 -20 -20 -20 -20 -20 -20 -20 -20 -20 -20 -20 -20 -20 -20 -20 -20 -20 -20 -20 -20 -20 -20 -20 -20 -20 -20 -20 -20 -20 -20 -20 -20
-20 -20 -20 -20 -20 -20 -20 -20 -20 -20 -20 -20 -20 -20 -20 -20 -20 -20 -20 -20 -20 -20 -20 -20 -20 -20 -20 -20 -20 -20 -20 -20 -20 -20 -20 -20 -20 -20 -20 -20 -20 -20 -20 -20
-20 -20 -20 -20 -20 -20 -20 -20 -20 -20 -20 -20 -20 -20 -20 -20 -20 -20 -20 -20 -20 -20 -20 -20 -20 -20 -20 -20 -20 -20 -20 -20 -20 -20 -20 -20 -20 -20 -20 -20 -20 -20 -20 -20
-20 -20 -20 -20 -20 -20 -20 -20 -20 -20 -20 -20 -20 -20 -20 -20 -20 -20 -20 -20 -20 -20 -20 -20 -20 -20 -20 -20 -20 -20 -20 -20 -20 -20 -20 -20 -20 -20 -20 -20 -20 -20 -20 -20
-20 -20 -20 -20 -20 -20 -20 -20 -20 -20 -20 -20 -20 -20 -20 -20 -20 -20 -20 -20 -20 -20 -20 -20 -20 -20 -20 -20 -20 -20 -20 -20 -20 -20 -20 -20 -20 -20 -20 -20 -20 -19 -20 -20
-20 -20 -20 -20 -20 -20 -20 -20 -20 -20 -20 -20 -20 -20 -20 -20 -20 -20 -20 -20 -20 -20 -20 -20 -20 -20 -20 -20 -20 -20 -20 -20 -20 -20 -20 -20 -20 -20 -20 -20 5 -19 -20 -20
-20 -20 -20 -20 -20 -20 -20 -20 -20 -20 -20 -20 -20 -20 -20 -20 -20 -20 -20 -20 -20 -20 -20 -20 -20 -20 -20 -20 -20 -20 -20 -20 -20 -20 -8 5 -8 -20 -19 -13 -20 -20 -20 -20
-20 -20 -20 -20 -20 -20 -20 -20 -20 -20 -20 -20 -20 -20 -20 -20 -20 -20 -20 -20 -20 -20 -20 -20 -20 -20 -20 -20 -20 -20 -20 -20 -20 -5 8 4 7 -4 -16 -20 -20 -20 -20 -20
-20 -20 -20 -20 -20 -20 -20 -20 -20 -20 -20 -14 -20 -20 -20 -20 -20 -20 -20 -20 -20 -20 -20 -20 -20 -20 -20 -20 -20 -20 -20 -20 -20 -2 -7 -16 1 -17 -20 -19 -20 -20 -20 -20
-20 -20 -20 -20 -20 -20 -20 -20 -20 -20 -20 -20 -19 -20 -20 -20 -20 -20 -20 -20 -20 -20 -20 -20 -20 -20 -20 -20 -20 -20 -20 -17 -15 -20 3 -15 1 -14 -20 -20 -20 -20 -20 -20
-20 -10 -15 -20 -20 -20 -20 -20 -20 -20 -20 -20 7 -20 -20 -20 -20 -20 -20 -20 -20 -20 -20 -20 -20 -20 -20 -20 -20 -20 -20 -2 -7 7 -2 2 -4 -20 -20 -20 -20 -20 -20 -20
-20 -20 -20 -20 -20 -20 -20 -20 -20 -20 -19 -20 -14 -20 -20 -20 -20 -20 -20 -20 -20 -20 -20 -20 -20 -20 -20 -20 -20 -20 -20 -17 -18 2 2 -13 -20 -20 -20 -20 -20 -20 -20 -20
-20 -20 -20 -20 -20 -20 -20 -20 -20 -20 -20 -17 -20 -20 -20 -20 -20 -20 -20 -20 -20 -20 -20 -20 -20 -20 -20 -20 -20 -20 -20 -20 -20 -8 -20 -19 -20 -20 -20 -20 -20 -20 -20 -20
-20 -12 -20 -20 -20 -20 -4 -20 -20 -20 -20 -20 -20 -20 -20 -20 -20 -20 -20 -20 -20 -20 -20 -20 -20 -20 -20 -20 -20 -20 -20 -20 -20 -20 -20 -20 -20 -20 -20 -20 -20 -20 -20 -20
-9 -20 4 -20 -20 -20 -18 -20 -20 -20 -20 -20 -20 -20 -20 -20 -20 -20 -20 -19 -14 -20 -13 11 -20 -20 -20 -20 -20 -19 -20 -20 -20 -20 -20 -20 -20 -20 -20 -20 -20 -20 -20 -20
-20 -8 -9 -20 -9 6 -20 -20 -20 -20 -20 -20 -20 -20 -20 -20 -20 5 -20 -20 -19 -4 29 -10 -20 -20 -20 -20 -20 1 -7 -4 -20 -20 -20 -20 -20 -20 -20 -20 -20 -20 -20 -20
-20 -20 -7 3 -20 -20 -20 -20 -20 -20 -20 -20 -20 -20 -20 -5 2 -20 -20 -5 -15 27 19 -20 -20 -20 -20 -0 18 9 4 -17 -20 -20 -20 -20 -20 -20 -20 -20 -20 -20 -20 -20
-20 -20 5 9 2 -20 -20 -20 -20 -20 -18 11 0 9 25 26 24 9 -20 -15 33 17 -20 -20 -5 6 20 20 1 0 -18 -20 -20 -20 -20 -20 -20 -20 -20 -20 -20 -20 -20 -20
-20 -12 -17 -20 -3 1 -20 -20 -20 -15 3 -20 16 14 14 18 14 17 -20 19 -5 -20 -20 -2 -8 -19 3 -12 -10 -9 -20 -20 -20 -20 -20 -20 -20 -20 -20 -20 -20 -20 -20 -14
10 18 8 12 11 3 -20 -20 -2 -3 -6 -20 -15 14 12 -9 27 -14 7 24 -9 -20 -14 -10 -20 -20 -17 -20 -20 -20 -20 -20 -20 -20 -20 -20 -20 -20 -20 -20 -20 -20 -16 -1
9 -15 -17 -3 -18 -20 -20 -11 23 -20 22 19 22 -12 -20 31 15 15 28 3 3 -16 -10 -20 -20 -20 -20 -20 -20 -20 -20 -20 -20 -20 -20 -20 -20 -20 -20 -20 -20 -20 -20 0
13 23 -5 -16 -20 -20 2 4 -13 23 10 17 20 24 27 14 25 30 5 10 -20 14 10 5 -20 -20 -20 -20 -20 -20 -20 -20 -20 -20 -20 -20 -20 -20 -20 -20 -20 -20 -3 2
6 -12 16 23 5 -20 17 4 19 18 18 20 8 12 32 24 -6 3 -11 -20 3 19 8 -12 -20 -20 -20 -20 -20 -20 -20 -20 -20 -20 -20 -20 -20 -20 -20 -20 -13 -18 -1 3
21 12 18 10 -16 21 -3 11 -20 15 18 17 13 -5 -20 1 5 -20 -20 -15 14 10 -19 -20 -20 -20 -20 -20 -20 -20 -20 -20 -20 -20 -20 -20 -20 -20 -20 -20 -19 -20 -20 -20
Wind_Speed
4 3 8 8 6 4 5 6 12 8 4 13 14 23 21 16 11 12 11 11 12 14 11 10 12 12 10 9 9 8 8 7 6 6 5 5 4 4 3 3 3 4 2 1
5 6 5 2 3 5 8 14 11 4 3 13 16 24 15 5 5 5 6 4 4 7 9 12 13 13 14 13 12 10 9 9 7 6 4 3 3 3 2 3 4 5 5 4
3 5 3 4 4 9 10 10 13 16 22 10 13 8 4 6 2 3 2 2 2 3 6 10 13 16 15 15 13 12 11 10 10 7 5 5 5 5 6 7 6 6 7 6
2 3 5 5 6 9 9 5 11 17 16 8 9 7 5 3 7 5 5 6 8 7 4 6 9 13 16 15 14 13 12 12 10 10 7 8 7 6 5 4 5 6 5 6
6 4 6 4 6 6 6 13 16 12 9 10 6 6 2 3 3 4 5 5 5 6 6 7 7 9 13 14 14 14 14 13 12 10 10 8 9 7 6 5 7 6 5 6
4 1 2 5 8 3 10 13 11 4 3 5 4 5 3 2 4 6 4 8 8 8 8 8 7 8 12 14 14 13 14 15 13 11 11 12 12 10 7 6 5 4 4 5
4 2 2 4 7 3 11 10 5 3 3 6 5 9 9 5 4 6 8 8 7 7 10 11 10 9 11 14 16 14 15 15 14 13 12 11 10 8 7 5 4 5 5 5
6 3 3 5 4 7 4 6 3 6 5 12 13 9 1 3 5 6 6 6 7 9 10 11 11 10 11 13 15 15 15 15 14 13 11 8 7 5 4 2 3 4 5 6
6 2 1 1 4 5 3 3 4 6 1 6 6 9 16 7 4 4 6 8 8 12 12 13 10 10 12 14 16 16 15 13 12 11 8 8 6 5 3 4 4 5 7 8
3 7 2 2 3 5 4 3 4 4 5 7 8 16 10 6 9 8 12 10 10 14 14 15 13 13 12 12 12 12 13 13 11 11 9 7 7 5 4 4 6 8 9 11
3 2 4 9 2 13 6 4 5 5 4 5 8 7 5 12 16 13 11 11 16 18 16 17 16 15 12 11 9 11 13 12 12 10 8 8 7 5 4 6 7 9 11 12
4 5 6 13 13 6 8 7 6 4 5 7 6 19 21 18 9 6 13 18 19 19 18 16 16 16 12 10 10 11 10 10 10 8 8 8 5 4 6 8 10 11 13 13
2 1 8 9 4 3 4 4 6 9 4 17 10 14 5 10 16 24 23 21 21 20 19 19 21 16 11 11 10 11 10 9 7 7 7 5 6 6 8 9 11 12 13 14
3 8 11 12 17 16 19 23 23 17 9 18 22 38 33 32 29 24 24 22 20 17 19 22 23 16 11 10 10 9 8 7 7 8 7 7 7 6 8 10 12 13 13 15
6 9 15 21 20 18 22 29 30 25 27 19 37 31 32 31 30 28 25 20 18 18 23 23 21 17 10 10 9 8 6 5 7 7 9 7 5 7 9 11 13 14 14 15
4 8 4 14 21 20 23 30 32 28 30 32 33 36 32 29 23 21 20 21 18 23 26 23 21 18 11 11 10 5 5 5 8 9 8 5 6 9 11 12 14 15 16 16
6 4 3 7 7 5 11 26 23 17 15 17 22 26 24 23 22 16 17 18 23 26 16 22 21 15 8 9 6 6 6 7 8 7 5 5 7 10 12 13 15 16 17 18
5 3 3 7 4 8 3 17 19 19 19 22 21 22 23 20 17 17 24 25 18 10 13 18 14 8 7 9 9 7 5 7 7 5 4 6 9 11 13 14 15 16 16 17
15 4 4 6 9 21 13 7 7 11 14 16 16 14 18 22 25 21 22 5 8 7 15 13 9 11 10 9 11 7 9 7 5 4 5 7 10 12 14 15 15 16 16 16
3 6 4 4 11 17 12 24 5 5 14 9 7 18 20 17 15 17 22 6 7 14 15 8 8 10 10 9 7 7 8 6 4 3 6 7 10 12 14 15 16 16 16 17
4 4 11 12 12 13 13 3 1 4 10 9 20 23 25 22 19 25 10 12 18 18 13 4 6 8 8 6 5 7 6 4 2 4 6 8 10 12 13 14 14 16 15 15
8 5 5 5 9 12 4 3 5 15 24 28 28 28 26 20 18 11 8 17 17 13 1 4 6 6 5 6 6 7 4 3 1 5 7 9 10 10 10 14 14 15 15 13
6 12 11 14 10 14 11 16 18 24 25 28 24 24 18 18 23 6 13 19 11 4 5 5 5 7 7 4 4 4 3 1 4 6 8 9 11 11 11 13 13 13 14 12
6 12 12 14 13 26 20 21 25 28 24 23 23 15 14 13 8 15 16 12 3 3 5 3 7 8 5 3 3 3 2 2 6 7 8 9 10 11 11 10 10 11 11 11
10 6 8 18 22 29 23 23 23 26 25 24 18 14 14 6 14 14 13 4 2 4 4 5 7 6 3 4 4 3 0 3 6 6 7 9 8 10 11 10 10 11 11 11
7 8 8 19 26 24 28 25 28 30 26 23 17 15 9 11 12 11 6 2 3 4 6 8 6 2 3 3 3 2 1 4 6 6 6 7 7 8 9 10 11 11 12 17
Wind_Direction
40 19 32 28 16 347 306 291 311 325 334 314 308 295 296 296 281 272 260 255 250 243 238 218 212 205 211 199 206 197 187 176 184 186 193 183 171 158 162 161 149 164 113 130
218 59 28 344 338 314 321 320 341 316 328 302 301 296 306 348 350 335 335 308 284 258 231 230 220 214 210 210 212 202 205 189 200 198 196 224 200 198 252 220 201 233 221 246
351 50 329 318 341 347 348 327 330 322 324 301 314 280 8 90 347 353 297 338 342 301 257 233 223 222 217 217 212 217 210 201 201 202 197 200 209 225 219 205 224 202 236 242
25 42 338 337 40 351 318 341 303 311 324 331 6 312 3 20 351 71 53 49 8 0 317 274 247 229 224 224 220 221 218 212 208 205 221 233 255 263 258 262 266 274 247 253
69 11 348 10 14 339 311 313 299 309 276 298 155 253 185 348 43 35 41 9 357 342 323 302 268 249 232 224 222 223 223 222 217 220 232 235 243 251 257 252 261 265 272 273
18 8 333 3 318 316 303 298 300 265 244 250 131 331 251 59 340 319 326 349 337 331 322 303 275 243 224 216 220 225 227 224 224 222 225 232 245 249 250 239 263 269 287 291
325 121 81 335 307 176 331 324 333 297 258 296 147 288 271 283 282 290 311 318 325 319 312 301 278 243 232 223 219 222 225 228 222 223 225 226 233 232 242 253 280 305 304 302
347 170 356 7 11 317 358 336 346 285 291 299 272 237 133 282 248 264 243 265 301 306 316 301 285 264 251 239 238 228 228 229 220 220 214 198 199 211 220 223 297 304 309 300
340 294 24 142 324 295 73 276 359 270 209 270 238 255 263 267 203 197 287 323 323 332 327 317 291 261 254 249 238 229 230 226 218 209 184 185 186 194 222 253 285 298 295 294
58 286 62 330 205 155 320 9 242 192 289 283 270 295 257 261 296 301 300 318 327 327 323 323 307 280 264 265 252 230 226 217 198 181 182 181 186 197 223 263 294 299 294 290
354 262 301 310 236 317 275 244 238 285 241 278 301 266 306 285 289 298 318 334 316 329 328 329 325 317 295 277 239 220 212 195 180 176 175 182 198 212 266 292 288 291 294 289
39 308 283 294 317 301 249 252 250 275 267 258 268 272 263 274 287 310 306 313 330 326 329 327 324 314 294 250 228 214 198 184 180 178 181 197 208 238 262 283 292 292 284 282
42 299 311 313 169 159 265 229 254 285 298 256 258 269 201 271 279 308 315 322 327 328 324 323 328 320 289 245 223 198 184 186 176 186 193 199 225 246 272 288 292 290 286 285
278 243 225 262 285 308 292 280 273 273 258 272 252 273 286 290 295 307 317 321 323 325 327 321 317 315 279 242 207 189 179 187 187 202 204 219 238 265 288 297 295 294 291 288
217 250 256 265 278 284 277 275 269 261 256 252 271 274 281 290 301 314 313 316 320 317 323 315 315 312 276 226 193 195 197 182 209 216 225 235 256 287 298 299 300 296 293 290
231 270 301 269 279 270 270 268 270 263 261 260 262 272 273 286 299 313 316 317 322 309 311 323 313 308 264 219 200 206 213 251 240 229 236 264 288 302 305 306 302 298 297 296
258 261 244 250 300 329 267 253 259 256 246 254 261 267 290 303 317 337 317 313 298 304 329 317 311 303 248 219 252 247 283 267 226 233 248 290 306 306 310 307 303 302 302 300
219 212 250 279 283 225 277 298 278 278 284 278 274 280 290 311 336 327 303 299 305 298 307 298 308 288 228 257 282 301 283 241 220 231 283 308 312 310 311 306 304 305 303 302
219 218 252 262 251 283 276 294 316 301 289 291 293 321 333 320 306 292 291 304 267 269 280 279 284 273 268 288 299 271 271 235 211 250 305 318 316 312 308 306 309 306 304 303
225 221 230 261 277 292 349 315 352 282 287 65 2 325 303 290 292 302 320 2 301 273 291 259 256 267 285 260 246 262 265 225 240 317 319 315 312 307 308 309 310 307 305 306
174 204 227 244 260 264 281 17 197 275 321 308 312 313 311 306 302 315 0 327 303 299 298 290 284 273 247 286 268 258 234 241 28 321 312 313 312 310 312 307 308 310 313 312
244 230 209 230 240 281 327 163 240 314 315 310 312 309 303 308 308 306 313 306 303 308 237 253 251 251 280 295 261 255 235 79 351 310 313 314 316 314 307 311 312 316 310 306
255 211 248 235 247 287 285 283 295 293 298 303 306 310 316 310 307 330 306 300 313 256 245 228 255 290 303 289 232 239 91 358 309 312 315 317 318 310 315 316 315 311 318 315
260 255 254 272 246 271 280 294 287 294 295 303 302 311 306 307 334 289 291 310 237 216 252 253 294 302 300 194 152 99 127 305 308 316 323 320 315 326 314 318 314 316 319 316
250 223 251 271 280 285 273 284 302 303 304 309 314 309 305 269 286 284 307 306 223 273 293 302 303 301 253 146 136 127 130 309 313 323 317 312 319 318 318 315 320 312 312 319
193 225 238 267 282 287 294 302 306 307 313 314 309 303 250 285 287 322 319 221 243 293 299 306 305 244 145 148 158 195 292 311 323 313 315 327 315 320 316 320 317 310 312 310